SCP
0 0 0 0 0 0 0 0 0 0 0 0 0 0 0 0 0 0 0 0 0 0 1 1 1 1 1 1 1 1 1 1 1 1 1 1 1 1 1 1 1 1 1 1
0 0 0 0 0 0 0 0 0 0 0 0 0 0 0 0 0 0 0 0 0 0 1 1 1 1 1 1 1 1 1 1 1 1 1 1 1 1 1 1 1 1 1 1
0 0 0 0 0 0 0 0 0 0 0 0 0 0 0 0 0 0 0 0 0 0 0 1 1 1 1 1 1 1 1 1 1 1 1 1 1 1 1 1 1 1 1 1
0 0 0 0 0 0 0 0 0 0 0 0 0 0 0 0 0 0 0 0 0 0 1 1 1 1 1 1 1 1 1 1 1 1 1 1 1 1 1 1 1 1 1 1
0 0 0 0 0 0 0 0 0 0 0 0 0 0 0 0 0 0 0 0 0 0 1 1 1 1 1 1 1 1 1 1 1 1 1 1 1 1 1 1 1 1 1 1
0 0 0 0 0 0 0 0 0 0 0 0 0 0 0 0 0 0 0 0 0 0 1 1 1 1 1 1 1 1 1 1 1 1 1 1 1 1 1 1 1 1 1 1
0 0 0 0 0 0 0 0 0 0 0 0 0 0 0 0 0 0 0 0 0 0 0 1 1 1 1 1 1 1 1 1 1 1 1 1 1 1 1 1 1 1 1 1
0 0 0 0 0 0 0 0 0 0 0 0 0 0 0 0 0 0 0 0 0 0 0 0 0 1 1 1 1 1 1 1 1 1 1 1 1 1 1 1 1 1 1 1
0 0 0 0 0 0 0 0 0 0 0 0 0 0 0 0 0 0 0 0 0 0 0 0 0 0 1 1 1 1 1 1 1 1 1 1 1 1 1 1 1 0 0 0
0 0 0 0 0 0 0 0 0 0 0 0 0 0 0 0 0 0 0 0 0 0 0 0 0 0 0 0 1 1 1 1 1 1 1 1 1 1 1 1 0 0 0 0
0 0 0 0 0 0 0 0 0 0 0 0 0 0 0 0 0 0 0 0 0 0 0 0 0 0 0 0 0 1 1 1 1 1 1 1 1 1 0 0 0 0 0 0
0 0 0 0 0 0 0 0 0 0 0 0 0 0 0 0 0 0 0 0 0 0 0 0 0 0 0 0 0 1 1 1 1 1 1 0 0 0 0 0 0 0 0 0
0 0 0 0 0 0 0 0 0 0 0 0 0 0 0 0 0 0 0 0 0 0 0 0 0 0 0 0 0 0 0 0 0 0 0 0 0 0 0 0 0 0 0 0
0 0 0 0 0 0 0 0 0 0 0 0 0 0 0 0 0 0 0 0 0 0 0 0 0 0 0 0 0 0 0 0 0 0 0 0 0 0 0 0 0 0 0 0
0 0 0 0 0 0 0 0 0 0 0 0 0 0 0 0 0 0 0 0 0 0 0 0 0 0 0 0 0 0 0 0 0 0 0 0 0 0 0 0 0 0 0 0
0 0 0 0 0 0 0 0 0 0 0 0 0 0 0 0 0 0 0 0 0 0 0 0 0 0 0 0 0 0 0 0 0 0 0 0 0 0 0 0 0 0 0 0
0 0 0 0 0 0 0 0 0 0 0 0 0 0 0 0 0 0 0 0 0 0 0 0 0 0 0 0 0 0 0 0 0 0 0 0 0 0 0 0 0 0 0 0
0 0 0 0 0 0 0 0 0 0 0 0 0 0 0 0 0 0 0 0 0 0 0 0 0 0 0 0 0 0 0 0 0 0 0 0 0 0 0 0 0 0 0 0
0 0 0 0 0 0 0 0 0 0 0 0 0 0 0 0 0 0 0 0 0 0 0 0 0 0 0 0 0 0 0 0 0 0 0 0 0 0 0 0 0 0 0 0
0 0 0 0 0 0 0 0 0 0 0 0 0 0 0 0 0 0 0 0 0 0 0 0 0 0 0 0 0 0 0 0 0 0 0 0 0 0 0 0 0 0 0 0
0 0 0 0 0 0 0 0 0 0 0 0 0 0 0 0 0 0 0 0 0 0 0 0 0 0 0 0 0 0 0 0 0 0 0 0 0 0 0 0 0 0 0 0
0 0 0 0 0 0 0 0 0 0 0 0 0 0 0 0 0 0 0 0 0 0 0 0 0 0 0 0 0 0 0 0 0 0 0 0 0 0 0 0 0 0 0 0
0 0 0 0 0 0 0 0 0 0 0 0 0 0 0 0 0 0 0 0 0 0 0 0 0 0 0 0 0 0 0 0 0 0 0 0 0 0 0 0 0 0 0 0
0 0 0 0 0 0 0 0 0 0 0 0 0 0 0 0 0 0 0 0 0 0 0 0 0 0 0 0 0 0 0 0 0 0 0 0 0 0 0 0 0 0 0 0
0 0 0 0 0 0 0 0 0 0 0 0 0 0 0 0 0 0 0 0 0 0 0 0 0 0 0 0 0 0 0 0 0 0 0 0 0 0 0 0 0 0 0 0
0 0 0 0 0 0 0 0 0 0 0 0 0 0 0 0 0 0 0 0 0 0 0 0 0 0 0 0 0 0 0 0 0 0 0 0 0 0 0 0 0 0 0 0
0 0 0 0 0 0 0 0 0 0 0 0 0 0 0 0 0 0 0 0 0 0 0 0 0 0 0 0 0 0 0 0 0 0 0 0 0 0 0 0 0 0 0 0
Wind_Speed
6 5 6 8 8 9 11 10 10 7 5 2 2 2 3 3 3 3 3 3 3 2 1 0 1 2 2 3 3 3 4 4 4 4 4 4 4 4 4 4 4 4 4 4
8 7 7 9 9 9 10 10 10 8 5 1 1 1 2 2 3 2 3 3 3 3 2 1 1 2 2 2 3 3 3 3 3 4 4 4 4 3 4 4 4 4 4 4
7 5 8 11 8 9 8 6 7 8 3 1 2 2 3 3 3 3 3 3 3 3 2 1 1 1 2 2 3 3 3 3 3 3 3 4 3 3 3 3 3 3 3 3
6 5 10 0 2 3 5 5 4 3 2 2 3 3 2 2 3 3 3 3 3 2 2 1 1 2 2 3 3 3 3 2 2 3 3 3 3 3 3 3 3 3 3 3
6 8 7 3 2 3 5 5 1 2 1 2 3 4 3 1 2 3 3 3 2 2 1 1 1 1 2 2 2 3 2 2 2 2 3 3 3 3 3 3 3 3 3 3
7 8 7 2 4 0 5 6 3 1 1 2 3 5 1 3 3 3 3 2 1 1 1 1 1 1 2 2 2 2 2 2 2 2 3 3 3 3 3 3 3 3 3 2
9 8 4 4 2 3 6 2 3 1 2 3 3 4 4 3 3 2 2 1 1 0 1 1 1 1 2 1 1 2 2 2 2 2 3 3 2 2 2 2 2 2 2 2
7 8 3 5 2 3 4 4 2 2 2 3 2 3 2 2 2 1 1 1 1 1 1 1 1 1 1 2 2 2 2 2 2 2 3 2 3 3 3 3 3 3 3 3
4 2 3 2 1 2 3 2 2 2 2 2 3 3 3 2 2 1 1 0 0 0 1 1 0 1 1 2 2 3 3 2 2 3 2 2 3 3 3 3 3 3 3 3
5 3 2 3 3 3 3 3 3 3 3 3 3 3 2 1 1 1 1 1 1 1 0 0 0 0 1 2 2 3 3 3 3 3 3 2 2 3 3 3 3 3 3 3
7 5 4 4 3 3 2 2 2 2 2 2 2 2 2 1 1 1 1 1 1 1 1 1 1 1 2 2 2 3 3 3 3 3 2 2 2 1 2 2 1 2 2 2
5 3 4 3 3 3 2 2 2 2 2 2 2 2 1 1 1 1 1 1 1 2 2 2 1 1 2 2 2 3 3 3 3 2 2 3 3 2 1 0 1 0 1 2
5 5 5 4 4 4 3 3 2 2 2 2 2 1 1 1 1 1 1 1 1 2 2 1 1 1 1 2 2 3 3 2 2 2 2 3 2 2 2 2 2 2 2 2
5 4 5 4 4 4 4 3 3 2 2 2 1 1 1 0 0 1 1 1 2 1 1 2 2 2 2 2 2 3 3 2 3 2 2 2 3 3 3 3 3 3 3 4
6 6 6 5 4 3 3 3 3 2 2 1 1 1 1 1 0 1 1 1 1 1 1 1 1 1 1 2 2 3 3 2 2 2 2 2 3 3 3 3 2 2 2 3
6 6 6 5 5 4 4 4 3 2 2 1 1 1 1 1 1 1 1 1 1 1 1 1 1 1 1 1 2 2 2 2 2 2 2 2 2 3 2 2 3 3 2 2
6 6 6 5 5 5 4 3 3 3 2 1 1 1 2 2 1 1 1 1 1 1 1 1 2 2 1 2 3 2 2 2 4 3 2 2 2 2 3 2 2 2 2 0
6 5 5 5 4 4 3 3 3 3 2 2 2 2 2 2 2 2 2 1 1 1 1 2 2 2 2 2 2 2 2 1 2 2 1 1 2 2 3 3 3 3 2 2
3 3 3 3 3 3 3 3 2 2 2 2 2 2 2 2 2 2 2 2 2 2 1 2 2 2 2 1 2 3 2 2 2 2 1 2 3 3 3 3 2 2 2 2
2 2 2 2 3 3 3 3 3 2 2 2 2 2 2 3 3 2 2 2 2 1 2 2 2 2 2 1 3 3 2 2 2 2 2 3 3 3 3 3 2 2 2 2
2 2 2 2 2 2 2 3 3 2 2 3 3 3 3 3 3 3 3 2 1 1 2 2 2 2 2 1 3 3 3 3 3 3 3 3 3 3 3 3 2 2 2 1
2 3 2 2 2 2 2 2 2 2 3 3 3 3 3 3 3 3 3 2 1 1 2 2 1 1 2 3 3 3 3 2 2 2 3 3 3 3 3 3 2 2 1 1
2 2 2 2 2 2 2 2 2 2 3 3 3 3 3 3 2 2 2 1 1 1 2 1 1 1 2 3 2 3 2 2 2 2 2 3 2 2 2 2 2 1 1 1
2 2 2 2 2 2 2 1 1 1 1 2 2 2 2 2 2 1 0 1 0 1 1 1 0 2 4 3 2 1 1 1 2 2 2 2 2 2 2 2 2 2 2 2
2 2 2 2 2 2 1 1 1 1 1 1 1 1 2 2 1 0 0 1 1 1 1 2 2 2 2 1 1 1 1 1 2 3 2 2 2 2 2 2 2 2 2 2
2 2 2 1 1 0 1 0 0 0 0 0 0 0 0 0 1 1 1 1 1 1 0 1 2 2 1 1 1 1 1 0 1 2 2 2 2 2 2 2 2 2 1 1
3 2 2 2 1 1 0 0 0 0 0 0 0 0 0 0 0 1 1 1 1 1 0 0 0 1 1 1 1 1 1 1 1 1 2 2 2 2 2 2 2 1 1 1
Wind_Direction
269 280 268 253 245 239 243 259 268 268 268 294 338 334 342 345 347 354 6 6 0 354 342 306 162 161 172 176 176 181 187 189 186 186 188 193 197 195 193 191 190 193 201 201
248 247 252 254 249 247 248 253 257 260 261 342 5 315 309 334 342 356 3 357 357 352 341 302 232 200 179 177 176 177 183 187 182 185 184 186 192 189 184 187 188 191 199 201
251 240 251 245 239 237 238 246 255 261 278 334 289 303 317 329 334 341 3 358 352 348 337 304 240 214 183 166 170 182 179 183 183 183 173 171 178 173 178 181 176 191 197 194
258 240 243 126 69 242 241 242 256 271 278 292 311 306 301 331 339 343 347 348 343 340 342 334 177 172 167 158 162 169 162 159 169 180 174 171 174 177 187 188 188 196 199 201
251 245 247 189 191 223 235 228 214 247 254 300 315 257 213 43 350 339 335 337 333 331 350 31 134 158 162 162 163 162 158 155 169 186 179 174 178 182 187 191 193 196 193 198
243 256 252 115 99 58 249 220 111 71 301 307 285 263 67 31 341 333 338 343 332 325 93 97 134 166 162 159 160 175 175 164 180 194 191 180 183 188 182 194 195 198 182 195
244 250 250 75 98 208 234 59 73 344 316 294 294 329 357 337 330 334 340 352 31 69 91 84 124 169 178 179 194 212 205 182 187 200 197 187 183 181 184 196 186 195 182 184
237 243 223 97 177 247 6 26 353 317 305 298 302 321 310 308 321 339 7 49 66 94 90 87 103 163 194 210 228 233 222 202 195 206 212 185 175 182 190 191 184 187 186 196
258 299 59 147 280 354 326 307 307 296 295 285 282 290 297 298 300 316 337 351 312 141 109 113 171 181 222 235 236 226 223 214 205 206 211 200 196 192 197 203 210 200 196 200
251 237 231 240 260 267 277 278 281 274 271 270 274 278 285 289 296 317 333 304 290 251 188 168 263 277 255 245 232 220 217 214 207 203 202 198 215 210 211 213 216 211 215 217
250 260 257 238 251 262 268 258 255 263 264 262 260 268 264 248 249 260 271 286 286 283 269 238 229 246 242 232 220 219 217 214 212 204 196 199 203 227 236 232 266 251 238 235
266 268 269 272 262 259 246 250 264 270 275 262 262 270 251 229 226 241 245 259 264 272 279 275 248 239 243 225 221 222 218 213 213 209 200 204 193 182 94 249 101 292 319 299
281 287 286 274 265 257 251 260 271 268 265 273 285 278 239 218 207 221 250 251 253 264 269 274 267 267 259 237 225 228 232 226 232 219 209 213 209 209 200 182 181 198 201 218
254 255 253 247 256 254 252 251 253 253 260 260 249 241 233 192 193 233 278 273 262 265 260 245 242 256 259 237 224 230 235 216 225 224 221 220 222 223 227 223 206 199 192 200
242 238 246 249 243 236 230 233 237 238 241 237 227 248 269 290 297 298 305 293 281 279 269 268 268 277 267 239 229 228 233 224 218 224 224 220 226 233 234 234 235 231 201 179
248 242 233 225 221 220 219 227 240 246 242 243 254 275 272 270 291 301 303 293 271 287 303 311 312 303 268 237 228 221 215 192 217 230 224 218 223 233 240 239 239 237 232 221
239 233 223 216 213 215 217 220 230 236 238 248 258 257 243 234 243 265 284 278 266 292 309 313 304 296 265 239 238 233 219 181 196 223 223 228 238 243 247 252 253 252 250 260
248 248 239 228 218 210 215 217 219 222 237 242 248 244 243 240 251 261 266 262 247 278 308 304 307 296 271 250 248 251 240 228 217 224 214 219 243 247 253 251 248 253 254 196
232 238 232 218 211 210 217 220 218 213 229 239 238 242 248 247 247 254 248 244 247 255 285 306 295 270 270 270 269 243 235 227 229 232 230 214 235 244 244 248 253 259 260 251
185 188 196 203 211 214 215 218 218 219 224 228 233 239 246 251 248 241 228 238 259 292 294 298 277 272 275 259 271 258 247 245 245 245 240 243 247 248 245 248 253 264 269 261
166 168 175 180 191 194 204 210 211 217 223 225 232 238 242 245 245 243 240 238 228 286 278 247 256 271 273 294 259 261 246 244 249 250 253 252 251 251 252 252 250 259 267 266
175 176 176 171 175 182 191 200 205 225 231 228 231 233 233 232 231 232 240 260 249 254 256 249 268 345 325 285 251 255 256 252 255 260 261 261 258 257 254 248 243 235 249 275
176 177 177 176 177 185 192 194 200 230 236 234 233 233 237 248 245 236 238 230 245 257 266 299 1 334 285 259 250 244 246 251 258 259 258 260 262 263 263 262 263 259 250 255
178 169 166 164 163 173 180 182 193 210 223 230 222 223 234 236 230 236 268 107 25 294 288 65 108 256 250 251 253 252 262 273 275 276 275 268 263 262 268 271 271 265 255 251
164 162 157 161 174 169 150 154 160 176 224 219 198 210 236 253 259 300 74 131 131 191 202 140 169 226 248 275 281 277 264 312 318 311 297 291 285 277 269 267 262 258 261 261
162 168 158 173 171 188 154 162 141 57 65 158 186 187 351 133 175 181 178 168 150 176 256 157 161 211 250 280 291 301 305 274 275 288 298 288 282 275 271 273 273 276 275 276
165 162 170 170 164 193 205 184 10 332 330 325 313 79 119 117 144 171 176 164 144 151 225 267 247 249 280 300 316 311 304 308 296 290 288 282 284 288 288 272 266 265 276 273